Weather in Alekseyevka

Russia / Belgorod Oblast     50°51′50″N   36°12′38″E
temp.,
°C
wind,
m/s
gust,
m/s
humid.,
%
clouds,
%
prec.,
mm/h
press.,
hPa
HPBL,
m
16 april, fri
fri1600:00+7sse37915 1.1 1013241
03:00+7se3688100 1.1 1014293
06:00+6se499261 0.1 1014288
09:00+9sse687873 0.1 1015898
12:00+9sse477760 0.1 1016878
15:00+11sse676478 0.5 10161275
18:00+10sse577584 0.1 1016759
21:00+7se4108994 0.3 1016221
17 april, sat
sat1700:00+6s389079 0.1 1017260
03:00+5ese2292100 1.5 101722
06:00+4sse239487 0.1 101860
09:00+7sw447431 0.2 1018609
12:00+9ssw556082 0.0 10181470
15:00+8sw5570100 0.3 1019995
18:00+7wsw467776 0.1 1019735
21:00+6sw3686100 0.1 1020531
18 april, sun
sun1800:00+5ssw368799 0.1 1020305
03:00+5s2486100 0.1 1020136
06:00+5s3588100 0.1 1019183
09:00+7ssw4776100 0.1 1020588
12:00+9sse4672100 0.0 1019771
15:00+13ssw5751100 0.2 10181743
18:00+10se3566100 0.1 1018121
21:00+10se51068100 0.1 1018237
19 april, mon
mon1900:00+9ese497292 0.0 1018171
03:00+8ese41076100 0.0 1017221
06:00+8ese41077100 0.0 1017249
09:00+10se6868100 0.0 1017537
12:00+9ese6980100 0.3 10171205
15:00+9ese6883100 0.6 1016843
18:00+8e61086100 0.1 1014816
21:00+8e51092100 0.1 1012545
20 april, tue
tue2000:00+8e51095100 0.1 1009426
03:00+9ene61298100 1.6 1004424
06:00+11e71498100 5.9 999545
09:00+12se71496100 12.3 996834
12:00+11sse61296100 7.4 996725
15:00+16s8136428 9.1 9951570
18:00+13sse597498 1.7 996493
21:00+9sse51091100 4.4 999716